Terug naar catalogus

PIESAT-2 11

ActiefWetenschapSSO
NORAD 62335·PAYLOAD·🇨🇳 China

Gelanceerd Dec 16, 2024 vanaf Taiyuan Satellite Launch Center

Loading…

Volgende Passages (komende 24 uur)

TLE

VersSource: Space-Track

Epoch: Sep 14, 2026, 23:14 UTC

1 62335U 24241C   26257.96809053  .00006591  00000-0  35480-3 0  9998
2 62335  97.5347 204.6103 0002299  64.8043 295.3427 15.15167120 96409

Volg PIESAT-2 11 in realtime met AllMySat

Download on the App Store